,,,PA_Meas_PMT16A,,PR_Meas_QMR101_102,,RH_Meas_QMH101,,SR_Meas_QMS101,,TA_Meas_QMH101,,GenWind,,GenWind,
date,time,status,PA,status,PR,status,RH,status,SR,status,TA,status,DirAvg,status,SpdAvg,
2012-03-03, 00:00:04,VALID,1001.62,VALID,0,VALID,92.8664,VALID,0,VALID,23.3125,VALID,34,VALID,0.814844,
2012-03-03, 00:01:04,VALID,1001.58,VALID,0,VALID,92.7519,VALID,0,VALID,23.332,VALID,46,VALID,1.12227,
2012-03-03, 00:02:04,VALID,1001.54,VALID,0,VALID,92.6833,VALID,0,VALID,23.3709,VALID,31,VALID,1.31367,
2012-03-03, 00:03:04,VALID,1001.52,VALID,0,VALID,92.5917,VALID,0,VALID,23.3691,VALID,26,VALID,1.97383,
2012-03-03, 00:04:04,VALID,1001.47,VALID,0,VALID,92.5002,VALID,0.0815089,VALID,23.4487,VALID,15,VALID,2.39648,
2012-03-03, 00:05:04,VALID,1001.44,VALID,0.5,VALID,92.2484,VALID,0,VALID,23.4877,VALID,16,VALID,2.19102,
2012-03-03, 00:06:04,VALID,1001.39,VALID,0,VALID,91.3253,VALID,0,VALID,23.546,VALID,18,VALID,3.32227,
2012-03-03, 00:07:04,VALID,1001.37,VALID,0,VALID,91.0278,VALID,0,VALID,23.6044,VALID,348,VALID,1.73945,
2012-03-03, 00:08:04,VALID,1001.36,VALID,0,VALID,91.1956,VALID,0.0815089,VALID,23.6434,VALID,21,VALID,1.15234,
2012-03-03, 00:09:04,VALID,1001.3,VALID,0,VALID,90.3336,VALID,0.0815089,VALID,23.6044,VALID,39,VALID,1.81211,
2012-03-03, 00:10:04,VALID,1001.29,VALID,0,VALID,90.2039,VALID,0,VALID,23.6044,VALID,39,VALID,1.06797,
2012-03-03, 00:11:04,VALID,1001.31,VALID,0.5,VALID,89.9445,VALID,0.0815089,VALID,23.585,VALID,23,VALID,1.41719,
2012-03-03, 00:12:04,VALID,1001.28,VALID,0,VALID,90.2344,VALID,0.0815089,VALID,23.5832,VALID,38,VALID,1.14766,
2012-03-03, 00:13:04,VALID,1001.3,VALID,0,VALID,90.2954,VALID,0.0815089,VALID,23.546,VALID,26,VALID,1.17383,
2012-03-03, 00:14:04,VALID,1001.26,VALID,0,VALID,90.1657,VALID,0,VALID,23.5266,VALID,16,VALID,2.37617,
2012-03-03, 00:15:04,VALID,1001.27,VALID,0,VALID,90.3183,VALID,0,VALID,23.5266,VALID,26,VALID,1.50859,
2012-03-03, 00:16:04,VALID,1001.24,VALID,0,VALID,90.3259,VALID,0,VALID,23.5266,VALID,33,VALID,1.47773,
2012-03-03, 00:17:04,VALID,1001.24,VALID,0,VALID,89.7614,VALID,0.0815089,VALID,23.546,VALID,13,VALID,1.62812,
2012-03-03, 00:18:04,VALID,1001.19,VALID,0.5,VALID,89.2808,VALID,0,VALID,23.5868,VALID,2,VALID,1.93242,
2012-03-03, 00:19:04,VALID,1001.16,VALID,0,VALID,89.3571,VALID,0,VALID,23.6239,VALID,11,VALID,1.17383,
2012-03-03, 00:20:04,VALID,1001.15,VALID,0,VALID,89.1206,VALID,0,VALID,23.6434,VALID,12,VALID,1.31758,
2012-03-03, 00:21:04,VALID,1001.14,VALID,0,VALID,89.1206,VALID,0.0815089,VALID,23.6628,VALID,54,VALID,0.982031,
2012-03-03, 00:22:04,VALID,1001.16,VALID,0,VALID,88.5179,VALID,0,VALID,23.7017,VALID,29,VALID,1.01328,
2012-03-03, 00:23:04,VALID,1001.15,VALID,0,VALID,89.0367,VALID,0,VALID,23.7017,VALID,57,VALID,0.541016,
2012-03-03, 00:24:04,VALID,1001.12,VALID,0,VALID,89.1053,VALID,0,VALID,23.6628,VALID,101,VALID,0.908203,
2012-03-03, 00:25:04,VALID,1001.1,VALID,0,VALID,89.4486,VALID,0.0815089,VALID,23.6434,VALID,106,VALID,0.825781,
2012-03-03, 00:26:04,VALID,1001.06,VALID,0,VALID,89.7461,VALID,0,VALID,23.585,VALID,105,VALID,0.448438,
2012-03-03, 00:27:04,VALID,1000.99,VALID,0,VALID,90.0742,VALID,0.0815089,VALID,23.5655,VALID,95,VALID,0.196875,
2012-03-03, 00:28:04,VALID,1000.95,VALID,0,VALID,90.1734,VALID,0,VALID,23.5266,VALID,67,VALID,0.564844,
2012-03-03, 00:29:04,VALID,1000.9,VALID,0,VALID,90.242,VALID,0.0815089,VALID,23.4859,VALID,102,VALID,0.822266,
2012-03-03, 00:30:04,VALID,1000.89,VALID,0,VALID,90.6235,VALID,0.0815089,VALID,23.4859,VALID,113,VALID,0.784766,
2012-03-03, 00:31:04,VALID,1000.87,VALID,0,VALID,90.776,VALID,0.0815089,VALID,23.4877,VALID,107,VALID,0.259766,
2012-03-03, 00:32:04,VALID,1000.88,VALID,0,VALID,90.9057,VALID,0,VALID,23.4664,VALID,107,VALID,0.009375,
2012-03-03, 00:33:04,VALID,1000.86,VALID,0,VALID,91.127,VALID,0,VALID,23.4682,VALID,92,VALID,0.279297,
2012-03-03, 00:34:04,VALID,1000.87,VALID,0,VALID,91.3177,VALID,0,VALID,23.4664,VALID,17,VALID,0.284375,
2012-03-03, 00:35:04,VALID,1000.84,VALID,0,VALID,91.3482,VALID,0,VALID,23.4877,VALID,17,VALID,0.517187,
2012-03-03, 00:36:04,VALID,1000.81,VALID,0,VALID,91.2262,VALID,0,VALID,23.4487,VALID,329,VALID,0.554297,
2012-03-03, 00:37:04,VALID,1000.83,VALID,0,VALID,91.2872,VALID,0,VALID,23.3886,VALID,345,VALID,0.813672,
2012-03-03, 00:38:04,VALID,1000.8,VALID,0,VALID,91.5695,VALID,0,VALID,23.3709,VALID,347,VALID,0.791406,
2012-03-03, 00:39:04,VALID,1000.78,VALID,0,VALID,91.9814,VALID,0,VALID,23.3709,VALID,9,VALID,0.703516,
2012-03-03, 00:40:04,VALID,1000.78,VALID,0,VALID,92.1416,VALID,0,VALID,23.3514,VALID,10,VALID,0.804297,
2012-03-03, 00:41:04,VALID,1000.76,VALID,0,VALID,92.34,VALID,0,VALID,23.3125,VALID,24,VALID,0.143359,
2012-03-03, 00:42:04,VALID,1000.76,VALID,0,VALID,92.4163,VALID,0,VALID,23.332,VALID,24,VALID,0.283203,
2012-03-03, 00:43:04,VALID,1000.77,VALID,0,VALID,92.5993,VALID,0,VALID,23.3107,VALID,24,VALID,0.29375,
2012-03-03, 00:44:04,VALID,1000.72,VALID,0,VALID,92.6451,VALID,0,VALID,23.2931,VALID,24,VALID,0.555859,
2012-03-03, 00:45:04,VALID,1000.7,VALID,0,VALID,92.7214,VALID,0.0815089,VALID,23.2931,VALID,24,VALID,0.257031,
2012-03-03, 00:46:04,VALID,1000.67,VALID,0,VALID,92.7977,VALID,0.0815089,VALID,23.2931,VALID,24,VALID,0.616016,
2012-03-03, 00:47:04,VALID,1000.65,VALID,0,VALID,92.8511,VALID,0,VALID,23.2718,VALID,42,VALID,0.178125,
2012-03-03, 00:48:04,VALID,1000.62,VALID,0,VALID,92.7977,VALID,0,VALID,23.2524,VALID,35,VALID,0.206641,
2012-03-03, 00:49:04,VALID,1000.59,VALID,0,VALID,92.9426,VALID,0,VALID,23.2931,VALID,35,VALID,0,
2012-03-03, 00:50:04,VALID,1000.56,VALID,0,VALID,92.9274,VALID,0,VALID,23.3143,VALID,35,VALID,0.172266,
2012-03-03, 00:51:04,VALID,1000.56,VALID,0,VALID,92.9732,VALID,0,VALID,23.2931,VALID,31,VALID,0.522656,
2012-03-03, 00:52:04,VALID,1000.51,VALID,0,VALID,93.0037,VALID,0,VALID,23.3125,VALID,32,VALID,0.721484,
2012-03-03, 00:53:04,VALID,1000.48,VALID,0,VALID,92.9274,VALID,0,VALID,23.3125,VALID,39,VALID,0.189844,
2012-03-03, 00:54:04,VALID,1000.46,VALID,0,VALID,92.8587,VALID,0,VALID,23.2931,VALID,30,VALID,0.769922,
2012-03-03, 00:55:04,VALID,1000.43,VALID,0,VALID,92.8816,VALID,0,VALID,23.3532,VALID,30,VALID,0.654297,
2012-03-03, 00:56:04,VALID,1000.43,VALID,0,VALID,92.6833,VALID,0,VALID,23.332,VALID,25,VALID,0.875391,
2012-03-03, 00:57:04,VALID,1000.39,VALID,0,VALID,92.5688,VALID,0.0815089,VALID,23.3514,VALID,26,VALID,0.689453,
2012-03-03, 00:58:04,VALID,1000.38,VALID,0,VALID,92.4315,VALID,0,VALID,23.3904,VALID,32,VALID,0.387891,
2012-03-03, 00:59:04,VALID,1000.4,VALID,0,VALID,92.3476,VALID,0,VALID,23.4293,VALID,2,VALID,0.639063,
2012-03-03, 01:00:04,VALID,1000.39,VALID,0,VALID,92.3629,VALID,0,VALID,23.447,VALID,16,VALID,0.444922,
2012-03-03, 01:01:04,VALID,1000.34,VALID,0,VALID,91.5161,VALID,0.0815089,VALID,23.5071,VALID,16,VALID,1.30313,
2012-03-03, 01:02:04,VALID,1000.39,VALID,0,VALID,91.0965,VALID,0.0815089,VALID,23.6434,VALID,6,VALID,1.05742,
2012-03-03, 01:03:04,VALID,1000.37,VALID,0,VALID,90.8295,VALID,0,VALID,23.7017,VALID,6,VALID,1.25156,
2012-03-03, 01:04:04,VALID,1000.32,VALID,0,VALID,90.2954,VALID,0,VALID,23.7601,VALID,5,VALID,1.71563,
2012-03-03, 01:05:04,VALID,1000.28,VALID,0,VALID,90.2954,VALID,0,VALID,23.7991,VALID,18,VALID,1.14375,
2012-03-03, 01:06:04,VALID,1000.28,VALID,0,VALID,90.1047,VALID,0,VALID,23.838,VALID,25,VALID,0.611719,
2012-03-03, 01:07:04,VALID,1000.25,VALID,0,VALID,90.1505,VALID,0,VALID,23.838,VALID,29,VALID,0.669922,
2012-03-03, 01:08:04,VALID,1000.26,VALID,0,VALID,90.1886,VALID,0,VALID,23.8593,VALID,30,VALID,0.535156,
2012-03-03, 01:09:04,VALID,1000.27,VALID,0,VALID,90.2344,VALID,0,VALID,23.838,VALID,52,VALID,0.0308594,
2012-03-03, 01:10:04,VALID,1000.29,VALID,0,VALID,90.2954,VALID,0,VALID,23.838,VALID,111,VALID,0.922656,
2012-03-03, 01:11:04,VALID,1000.31,VALID,0,VALID,90.4327,VALID,0,VALID,23.8575,VALID,109,VALID,0.628125,
2012-03-03, 01:12:04,VALID,1000.32,VALID,0,VALID,90.5167,VALID,0.0815089,VALID,23.8167,VALID,95,VALID,0.5,
2012-03-03, 01:13:04,VALID,1000.3,VALID,0,VALID,90.7455,VALID,0,VALID,23.8185,VALID,105,VALID,0.352734,
2012-03-03, 01:14:04,VALID,1000.31,VALID,0,VALID,90.8066,VALID,0,VALID,23.8185,VALID,106,VALID,0,
2012-03-03, 01:15:04,VALID,1000.29,VALID,0,VALID,90.8829,VALID,0,VALID,23.8185,VALID,106,VALID,0.100781,
2012-03-03, 01:16:04,VALID,1000.28,VALID,0,VALID,90.921,VALID,0,VALID,23.7991,VALID,105,VALID,0,
2012-03-03, 01:17:04,VALID,1000.27,VALID,0,VALID,91.1041,VALID,0,VALID,23.7796,VALID,97,VALID,0.366797,
2012-03-03, 01:18:04,VALID,1000.26,VALID,0,VALID,91.3482,VALID,0,VALID,23.7601,VALID,75,VALID,0.367578,
2012-03-03, 01:19:04,VALID,1000.24,VALID,0,VALID,91.4626,VALID,0,VALID,23.7601,VALID,346,VALID,0.419922,
2012-03-03, 01:20:04,VALID,1000.2,VALID,0,VALID,91.5771,VALID,0,VALID,23.7389,VALID,355,VALID,0.222266,
2012-03-03, 01:21:04,VALID,1000.17,VALID,0,VALID,91.6229,VALID,0,VALID,23.7407,VALID,8,VALID,0.621094,
2012-03-03, 01:22:04,VALID,1000.17,VALID,0,VALID,91.7678,VALID,0,VALID,23.7407,VALID,7,VALID,0.548047,
2012-03-03, 01:23:04,VALID,1000.17,VALID,0,VALID,92.0119,VALID,0,VALID,23.8009,VALID,30,VALID,0.678906,
2012-03-03, 01:24:04,VALID,1000.12,VALID,0,VALID,91.9738,VALID,0,VALID,23.8575,VALID,22,VALID,0.998438,
2012-03-03, 01:25:04,VALID,1000.12,VALID,0,VALID,91.8059,VALID,0,VALID,23.9159,VALID,6,VALID,1.45664,
2012-03-03, 01:26:04,VALID,1000.12,VALID,0,VALID,91.6229,VALID,0,VALID,23.9742,VALID,31,VALID,0.58125,
2012-03-03, 01:27:04,VALID,1000.13,VALID,0,VALID,91.4779,VALID,0,VALID,24.0132,VALID,6,VALID,0.768359,
2012-03-03, 01:28:04,VALID,1000.1,VALID,0,VALID,91.2948,VALID,0.0815089,VALID,24.0521,VALID,31,VALID,0.789844,
2012-03-03, 01:29:04,VALID,1000.06,VALID,0,VALID,91.2338,VALID,0.0815089,VALID,24.0716,VALID,359,VALID,1.69687,
2012-03-03, 01:30:04,VALID,1000.07,VALID,0,VALID,90.9973,VALID,0,VALID,24.1707,VALID,28,VALID,0.905469,
2012-03-03, 01:31:04,VALID,1000.02,VALID,0,VALID,90.8447,VALID,0,VALID,24.1884,VALID,10,VALID,0.921094,
2012-03-03, 01:32:04,VALID,999.955,VALID,0,VALID,90.6616,VALID,0,VALID,24.1865,VALID,7,VALID,1.49648,
2012-03-03, 01:33:04,VALID,999.9,VALID,0,VALID,90.4785,VALID,0,VALID,24.2486,VALID,16,VALID,0.775,
2012-03-03, 01:34:04,VALID,999.854,VALID,0,VALID,90.2878,VALID,0,VALID,24.2875,VALID,21,VALID,0.93125,
2012-03-03, 01:35:04,VALID,999.813,VALID,0,VALID,90.4022,VALID,0,VALID,24.2449,VALID,358,VALID,1.03203,
2012-03-03, 01:36:04,VALID,999.811,VALID,0,VALID,90.3183,VALID,0,VALID,24.2857,VALID,8,VALID,1.09023,
2012-03-03, 01:37:04,VALID,999.756,VALID,0,VALID,90.1276,VALID,0.0815089,VALID,24.3052,VALID,9,VALID,0.985156,
2012-03-03, 01:38:04,VALID,999.762,VALID,0,VALID,90.1505,VALID,0,VALID,24.3052,VALID,8,VALID,0.456641,
2012-03-03, 01:39:04,VALID,999.8,VALID,0,VALID,90.0666,VALID,0,VALID,24.3052,VALID,3,VALID,0.478125,
2012-03-03, 01:40:04,VALID,999.804,VALID,0,VALID,90.242,VALID,0,VALID,24.2662,VALID,3,VALID,0.133203,
2012-03-03, 01:41:04,VALID,999.847,VALID,0,VALID,90.2191,VALID,0,VALID,24.2468,VALID,3,VALID,0.0511719,
2012-03-03, 01:42:04,VALID,999.867,VALID,0,VALID,90.1581,VALID,0,VALID,24.206,VALID,3,VALID,0.267188,
2012-03-03, 01:43:04,VALID,999.873,VALID,0,VALID,90.242,VALID,0,VALID,24.2078,VALID,4,VALID,0.380078,
2012-03-03, 01:44:04,VALID,999.917,VALID,0,VALID,90.5777,VALID,0.0815089,VALID,24.1865,VALID,157,VALID,0.967188,
2012-03-03, 01:45:04,VALID,999.933,VALID,0,VALID,90.7455,VALID,0.0815089,VALID,24.1884,VALID,164,VALID,0.801562,
2012-03-03, 01:46:04,VALID,999.93,VALID,0,VALID,90.7684,VALID,0.0815089,VALID,24.1105,VALID,154,VALID,0.853516,
2012-03-03, 01:47:04,VALID,999.96,VALID,0,VALID,91.1041,VALID,0.0815089,VALID,24.0308,VALID,153,VALID,0.705469,
2012-03-03, 01:48:04,VALID,999.959,VALID,0,VALID,91.127,VALID,0,VALID,23.9937,VALID,153,VALID,0.726563,
2012-03-03, 01:49:04,VALID,999.958,VALID,0,VALID,91.3253,VALID,0,VALID,23.914,VALID,150,VALID,0.913281,
2012-03-03, 01:50:04,VALID,999.99,VALID,0,VALID,91.661,VALID,0,VALID,23.8964,VALID,150,VALID,0.789063,
2012-03-03, 01:51:04,VALID,999.97,VALID,0,VALID,91.8288,VALID,0,VALID,23.8787,VALID,150,VALID,0.744531,
2012-03-03, 01:52:04,VALID,999.956,VALID,0,VALID,91.9967,VALID,0,VALID,23.838,VALID,150,VALID,0.690625,
2012-03-03, 01:53:04,VALID,999.938,VALID,0,VALID,92.2942,VALID,0,VALID,23.8185,VALID,150,VALID,0.497656,
2012-03-03, 01:54:04,VALID,999.931,VALID,0,VALID,92.2866,VALID,0,VALID,23.8185,VALID,150,VALID,0.392578,
2012-03-03, 01:55:04,VALID,999.921,VALID,0,VALID,92.4468,VALID,0,VALID,23.7991,VALID,150,VALID,0.271094,
2012-03-03, 01:56:04,VALID,999.938,VALID,0,VALID,92.5383,VALID,0,VALID,23.7991,VALID,150,VALID,0.500781,
2012-03-03, 01:57:04,VALID,999.91,VALID,0,VALID,92.6528,VALID,0,VALID,23.8203,VALID,150,VALID,0,
2012-03-03, 01:58:04,VALID,999.916,VALID,0,VALID,92.668,VALID,0.0815089,VALID,23.7991,VALID,150,VALID,0.326172,
2012-03-03, 01:59:04,VALID,999.879,VALID,0,VALID,92.8511,VALID,0,VALID,23.8185,VALID,150,VALID,0,
2012-03-03, 02:00:04,VALID,999.895,VALID,0,VALID,92.9121,VALID,0,VALID,23.838,VALID,150,VALID,0,
2012-03-03, 02:01:04,VALID,999.851,VALID,0,VALID,92.8282,VALID,0,VALID,23.8167,VALID,150,VALID,0.0121094,
2012-03-03, 02:02:04,VALID,999.841,VALID,0,VALID,92.8206,VALID,0.0815089,VALID,23.7991,VALID,150,VALID,0,
2012-03-03, 02:03:04,VALID,999.863,VALID,0,VALID,92.8969,VALID,0,VALID,23.8185,VALID,150,VALID,0,
2012-03-03, 02:04:04,VALID,999.862,VALID,0,VALID,92.8435,VALID,0,VALID,23.7991,VALID,150,VALID,0,
2012-03-03, 02:05:04,VALID,999.872,VALID,0,VALID,92.8435,VALID,0.0815089,VALID,23.7796,VALID,150,VALID,0,
2012-03-03, 02:06:04,VALID,999.841,VALID,0,VALID,92.8892,VALID,0,VALID,23.7601,VALID,150,VALID,0,
2012-03-03, 02:07:04,VALID,999.824,VALID,0,VALID,92.9045,VALID,0,VALID,23.7601,VALID,150,VALID,0,
2012-03-03, 02:08:04,VALID,999.821,VALID,0,VALID,93.0266,VALID,0,VALID,23.7796,VALID,150,VALID,0.186328,
2012-03-03, 02:09:04,VALID,999.81,VALID,0,VALID,93.1181,VALID,0,VALID,23.7796,VALID,150,VALID,0,
2012-03-03, 02:10:04,VALID,999.777,VALID,0,VALID,93.2707,VALID,0,VALID,23.7991,VALID,150,VALID,0,
2012-03-03, 02:11:04,VALID,999.765,VALID,0,VALID,93.2859,VALID,0,VALID,23.838,VALID,150,VALID,0,
2012-03-03, 02:12:04,VALID,999.749,VALID,0,VALID,93.2631,VALID,0,VALID,23.838,VALID,150,VALID,0,
2012-03-03, 02:13:04,VALID,999.725,VALID,0,VALID,93.3546,VALID,0.0815089,VALID,23.838,VALID,150,VALID,0,
2012-03-03, 02:14:04,VALID,999.716,VALID,0,VALID,93.2097,VALID,0.0815089,VALID,23.838,VALID,150,VALID,0.417188,
2012-03-03, 02:15:04,VALID,999.725,VALID,0,VALID,93.0952,VALID,0,VALID,23.7796,VALID,152,VALID,0.604297,
2012-03-03, 02:16:04,VALID,999.741,VALID,0,VALID,93.2097,VALID,0.0815089,VALID,23.7601,VALID,152,VALID,0.271875,
2012-03-03, 02:17:04,VALID,999.776,VALID,0,VALID,93.2936,VALID,0,VALID,23.7796,VALID,152,VALID,0.142578,
2012-03-03, 02:18:04,VALID,999.767,VALID,0,VALID,93.3699,VALID,0,VALID,23.7796,VALID,152,VALID,0.303125,
2012-03-03, 02:19:04,VALID,999.8,VALID,0,VALID,93.3088,VALID,0.0815089,VALID,23.7601,VALID,152,VALID,0.344922,
2012-03-03, 02:20:04,VALID,999.824,VALID,0,VALID,93.3546,VALID,0,VALID,23.7601,VALID,152,VALID,0.166016,
2012-03-03, 02:21:04,VALID,999.822,VALID,0,VALID,93.4233,VALID,0,VALID,23.7601,VALID,152,VALID,0.0078125,
2012-03-03, 02:22:04,VALID,999.79,VALID,0,VALID,93.5224,VALID,0,VALID,23.7796,VALID,152,VALID,0.475781,
2012-03-03, 02:23:04,VALID,999.75,VALID,0,VALID,93.4919,VALID,0,VALID,23.7796,VALID,152,VALID,0.474609,
2012-03-03, 02:24:04,VALID,999.749,VALID,0,VALID,93.4767,VALID,0,VALID,23.7407,VALID,155,VALID,0.794141,
2012-03-03, 02:25:04,VALID,999.732,VALID,0,VALID,93.4996,VALID,0,VALID,23.7407,VALID,169,VALID,0.874609,
2012-03-03, 02:26:04,VALID,999.72,VALID,0,VALID,93.553,VALID,0,VALID,23.7194,VALID,155,VALID,0.889844,
2012-03-03, 02:27:04,VALID,999.716,VALID,0,VALID,93.5682,VALID,0,VALID,23.7425,VALID,141,VALID,0.986719,
2012-03-03, 02:28:04,VALID,999.704,VALID,0,VALID,93.7284,VALID,0,VALID,23.7407,VALID,113,VALID,0.844922,
2012-03-03, 02:29:04,VALID,999.684,VALID,0,VALID,93.614,VALID,0,VALID,23.7212,VALID,90,VALID,0.819922,
2012-03-03, 02:30:04,VALID,999.677,VALID,0,VALID,93.6521,VALID,0,VALID,23.7,VALID,99,VALID,0.540234,
2012-03-03, 02:31:04,VALID,999.707,VALID,0,VALID,93.6598,VALID,0,VALID,23.7212,VALID,93,VALID,0.95,
2012-03-03, 02:32:04,VALID,999.724,VALID,0,VALID,93.6445,VALID,0.0815089,VALID,23.7601,VALID,91,VALID,0.500781,
2012-03-03, 02:33:04,VALID,999.699,VALID,0,VALID,93.675,VALID,0,VALID,23.7814,VALID,97,VALID,0.672656,
2012-03-03, 02:34:04,VALID,999.716,VALID,0,VALID,93.7055,VALID,0,VALID,23.8398,VALID,100,VALID,1.48984,
2012-03-03, 02:35:04,VALID,999.69,VALID,0,VALID,93.6674,VALID,0,VALID,23.8167,VALID,96,VALID,0.927344,
2012-03-03, 02:36:04,VALID,999.677,VALID,0,VALID,93.5453,VALID,0.0815089,VALID,23.8769,VALID,103,VALID,0.832031,
2012-03-03, 02:37:04,VALID,999.672,VALID,0,VALID,93.5377,VALID,0,VALID,23.8964,VALID,99,VALID,0.09375,
2012-03-03, 02:38:04,VALID,999.671,VALID,0,VALID,93.5224,VALID,0.0815089,VALID,23.9159,VALID,99,VALID,0.209766,
2012-03-03, 02:39:04,VALID,999.706,VALID,0,VALID,93.5072,VALID,0,VALID,23.9353,VALID,96,VALID,0.366797,
2012-03-03, 02:40:04,VALID,999.7,VALID,0,VALID,93.4614,VALID,0.0815089,VALID,23.9548,VALID,96,VALID,0.20625,
2012-03-03, 02:41:04,VALID,999.727,VALID,0,VALID,93.4309,VALID,0,VALID,23.9548,VALID,91,VALID,0.277344,
2012-03-03, 02:42:04,VALID,999.736,VALID,0,VALID,93.4462,VALID,0,VALID,23.9548,VALID,77,VALID,0.507813,
2012-03-03, 02:43:04,VALID,999.726,VALID,0,VALID,93.4004,VALID,0,VALID,23.9761,VALID,77,VALID,0.223047,
2012-03-03, 02:44:04,VALID,999.704,VALID,0,VALID,93.4004,VALID,0,VALID,23.9742,VALID,57,VALID,0.482422,
2012-03-03, 02:45:04,VALID,999.714,VALID,0,VALID,93.3851,VALID,0.0815089,VALID,23.9955,VALID,57,VALID,0.163672,
2012-03-03, 02:46:04,VALID,999.703,VALID,0,VALID,93.3851,VALID,0.0815089,VALID,23.9937,VALID,57,VALID,0.336328,
2012-03-03, 02:47:04,VALID,999.692,VALID,0,VALID,93.3775,VALID,0,VALID,23.9742,VALID,57,VALID,0.242188,
2012-03-03, 02:48:04,VALID,999.721,VALID,0,VALID,93.3622,VALID,0,VALID,23.9548,VALID,57,VALID,0,
2012-03-03, 02:49:04,VALID,999.729,VALID,0,VALID,93.4156,VALID,0.0815089,VALID,23.9742,VALID,57,VALID,0,
2012-03-03, 02:50:04,VALID,999.769,VALID,0,VALID,93.3851,VALID,0,VALID,23.9742,VALID,57,VALID,0.151172,
2012-03-03, 02:51:04,VALID,999.732,VALID,0,VALID,93.4156,VALID,0,VALID,23.9724,VALID,57,VALID,0.134375,
2012-03-03, 02:52:04,VALID,999.759,VALID,0,VALID,93.4309,VALID,0.0815089,VALID,23.9937,VALID,57,VALID,0.00742187,
2012-03-03, 02:53:04,VALID,999.775,VALID,0,VALID,93.4538,VALID,0.0815089,VALID,23.9742,VALID,55,VALID,0.507422,
2012-03-03, 02:54:04,VALID,999.788,VALID,0,VALID,93.469,VALID,0,VALID,23.9761,VALID,344,VALID,0.821094,
2012-03-03, 02:55:04,VALID,999.804,VALID,0,VALID,93.553,VALID,0,VALID,23.9955,VALID,354,VALID,0.828906,
2012-03-03, 02:56:04,VALID,999.846,VALID,0,VALID,93.6903,VALID,0,VALID,24.015,VALID,354,VALID,0.733594,
2012-03-03, 02:57:04,VALID,999.866,VALID,0,VALID,93.5987,VALID,0,VALID,24.015,VALID,348,VALID,0.838672,
2012-03-03, 02:58:04,VALID,999.883,VALID,0,VALID,93.5301,VALID,0,VALID,24.015,VALID,346,VALID,0.912109,
2012-03-03, 02:59:04,VALID,999.842,VALID,0,VALID,93.4767,VALID,0,VALID,23.9955,VALID,345,VALID,0.851172,
2012-03-03, 03:00:04,VALID,999.835,VALID,0,VALID,93.4385,VALID,0,VALID,23.9955,VALID,344,VALID,0.589453,
2012-03-03, 03:01:04,VALID,999.821,VALID,0,VALID,93.4385,VALID,0,VALID,24.015,VALID,347,VALID,0.398828,
2012-03-03, 03:02:04,VALID,999.804,VALID,0,VALID,93.4538,VALID,0,VALID,24.015,VALID,347,VALID,0.01875,
2012-03-03, 03:03:04,VALID,999.804,VALID,0,VALID,93.4614,VALID,0,VALID,24.0345,VALID,347,VALID,0,
2012-03-03, 03:04:04,VALID,999.794,VALID,0,VALID,93.3241,VALID,0,VALID,24.0345,VALID,347,VALID,0.340234,
2012-03-03, 03:05:04,VALID,999.766,VALID,0,VALID,93.3088,VALID,0,VALID,24.0557,VALID,347,VALID,0,
2012-03-03, 03:06:04,VALID,999.789,VALID,0,VALID,93.3165,VALID,0,VALID,24.0539,VALID,347,VALID,0.216406,
2012-03-03, 03:07:04,VALID,999.783,VALID,0,VALID,93.2707,VALID,0,VALID,24.0734,VALID,347,VALID,0.478906,
2012-03-03, 03:08:04,VALID,999.882,VALID,0,VALID,93.2936,VALID,0,VALID,24.0716,VALID,347,VALID,0.689453,
2012-03-03, 03:09:04,VALID,999.88,VALID,0,VALID,93.2097,VALID,0,VALID,24.0929,VALID,351,VALID,0.628516,
2012-03-03, 03:10:04,VALID,999.925,VALID,0,VALID,93.0876,VALID,0,VALID,24.0929,VALID,355,VALID,0.447656,
2012-03-03, 03:11:04,VALID,999.967,VALID,0,VALID,93.1715,VALID,0,VALID,24.0734,VALID,355,VALID,0,
2012-03-03, 03:12:04,VALID,1000.03,VALID,0,VALID,93.2173,VALID,0,VALID,24.0734,VALID,355,VALID,0,
2012-03-03, 03:13:04,VALID,1000.02,VALID,0,VALID,93.2859,VALID,0,VALID,24.091,VALID,56,VALID,0.321484,
2012-03-03, 03:14:04,VALID,1000.05,VALID,0,VALID,93.3622,VALID,0,VALID,24.1123,VALID,56,VALID,0.394141,
2012-03-03, 03:15:04,VALID,1000.09,VALID,0,VALID,93.3699,VALID,0,VALID,24.1123,VALID,56,VALID,0.328516,
2012-03-03, 03:16:04,VALID,1000.09,VALID,0,VALID,93.3241,VALID,0,VALID,24.1123,VALID,43,VALID,0.583984,
2012-03-03, 03:17:04,VALID,1000.08,VALID,0,VALID,93.2631,VALID,0,VALID,24.0734,VALID,14,VALID,0.533594,
2012-03-03, 03:18:04,VALID,1000.06,VALID,0,VALID,93.3699,VALID,0,VALID,24.1142,VALID,13,VALID,0.537891,
2012-03-03, 03:19:04,VALID,1000.07,VALID,0,VALID,93.4004,VALID,0,VALID,24.0947,VALID,14,VALID,0.719531,
2012-03-03, 03:20:04,VALID,1000.09,VALID,0,VALID,93.4385,VALID,0,VALID,24.0734,VALID,15,VALID,0.273047,
2012-03-03, 03:21:04,VALID,1000.11,VALID,0,VALID,93.469,VALID,0,VALID,24.0539,VALID,15,VALID,0.389453,
2012-03-03, 03:22:04,VALID,1000.1,VALID,0,VALID,93.5224,VALID,0,VALID,24.0539,VALID,15,VALID,0.0714844,
2012-03-03, 03:23:04,VALID,1000.15,VALID,0,VALID,93.5682,VALID,0,VALID,24.0539,VALID,15,VALID,0.0539063,
2012-03-03, 03:24:04,VALID,1000.18,VALID,0,VALID,93.5911,VALID,0,VALID,24.0539,VALID,15,VALID,0,
2012-03-03, 03:25:04,VALID,1000.19,VALID,0,VALID,93.5758,VALID,0,VALID,24.0132,VALID,15,VALID,0,
2012-03-03, 03:26:04,VALID,1000.2,VALID,0,VALID,93.5911,VALID,0,VALID,24.0345,VALID,15,VALID,0,
2012-03-03, 03:27:04,VALID,1000.22,VALID,0,VALID,93.6369,VALID,0,VALID,24.0345,VALID,38,VALID,0,
2012-03-03, 03:28:04,VALID,1000.2,VALID,0,VALID,93.5987,VALID,0,VALID,24.015,VALID,38,VALID,0,
2012-03-03, 03:29:04,VALID,1000.22,VALID,0,VALID,93.6369,VALID,0,VALID,24.015,VALID,38,VALID,0,
2012-03-03, 03:30:04,VALID,1000.2,VALID,0,VALID,93.6903,VALID,0,VALID,24.015,VALID,38,VALID,0,
2012-03-03, 03:31:04,VALID,1000.24,VALID,0,VALID,93.7055,VALID,0,VALID,23.9955,VALID,38,VALID,0,
2012-03-03, 03:32:04,VALID,1000.26,VALID,0,VALID,93.7208,VALID,0,VALID,23.9955,VALID,38,VALID,0.09375,
2012-03-03, 03:33:04,VALID,1000.3,VALID,0.5,VALID,93.7284,VALID,0,VALID,23.9548,VALID,38,VALID,0,
2012-03-03, 03:34:04,VALID,1000.35,VALID,0,VALID,93.7208,VALID,0,VALID,23.9566,VALID,38,VALID,0,
2012-03-03, 03:35:04,VALID,1000.33,VALID,0,VALID,93.7895,VALID,0,VALID,23.9566,VALID,33,VALID,0.316406,
2012-03-03, 03:36:04,VALID,1000.35,VALID,0,VALID,93.8276,VALID,0,VALID,23.9371,VALID,33,VALID,0.0867188,
2012-03-03, 03:37:04,VALID,1000.35,VALID,0,VALID,93.8505,VALID,0,VALID,23.9566,VALID,33,VALID,0.00820312,
2012-03-03, 03:38:04,VALID,1000.32,VALID,0,VALID,93.8963,VALID,0,VALID,23.9566,VALID,33,VALID,0.0195313,
2012-03-03, 03:39:04,VALID,1000.29,VALID,0,VALID,93.9191,VALID,0.0815089,VALID,23.9335,VALID,33,VALID,0,
2012-03-03, 03:40:04,VALID,1000.29,VALID,0,VALID,93.9497,VALID,0.0815089,VALID,23.9937,VALID,67,VALID,0.558594,
2012-03-03, 03:41:04,VALID,1000.28,VALID,0,VALID,94.0031,VALID,0,VALID,24.015,VALID,67,VALID,0.491016,
2012-03-03, 03:42:04,VALID,1000.26,VALID,0,VALID,93.9649,VALID,0.0815089,VALID,23.9937,VALID,80,VALID,0.572266,
2012-03-03, 03:43:04,VALID,1000.27,VALID,0,VALID,93.9725,VALID,0.0815089,VALID,23.9937,VALID,87,VALID,0.754687,
2012-03-03, 03:44:04,VALID,1000.3,VALID,0.5,VALID,93.9573,VALID,0,VALID,23.9937,VALID,94,VALID,1.10156,